Vorticity
8 8 8 8 8 8 8 7 7 7 7 7 7 7 6 6 6 6 6 6 6 6 6 6 6 6 6 6 6 6 6 6 6 6 6 6 6 6 6 6 5 5 5 5 5 5 5 5 5 5 5 5 4 4 4 4 4 4 4 4 4 4 4 4 4 4 4 4 5 5 5 5 5 5 5 5 5 5 6 6 7 7 7 6 5 4 4 4 5 5 6 6 6 6 6 5 5 5 5 6 6 6 6
8 8 8 8 8 8 8 7 7 7 7 7 7 7 7 7 6 6 6 6 6 6 6 6 6 6 6 6 6 6 6 6 6 6 6 6 6 6 6 6 6 6 6 6 6 6 6 5 5 5 6 6 5 5 5 5 5 5 5 5 5 5 4 4 4 4 4 4 4 4 4 5 5 5 5 5 5 5 5 5 5 6 6 7 6 5 4 3 3 4 5 6 6 6 6 6 5 5 5 5 6 6 6
8 8 8 8 8 8 8 8 7 7 7 7 7 7 7 7 7 7 7 7 7 7 7 7 7 7 6 6 7 7 7 7 7 7 7 7 7 7 7 6 6 6 6 6 6 6 6 6 6 6 6 6 6 6 6 6 6 6 6 6 6 6 5 5 5 5 4 4 4 4 4 4 4 4 5 5 5 5 5 5 5 5 5 6 6 6 5 4 3 2 2 3 5 6 6 7 6 6 5 5 5 6 6
8 8 8 8 8 8 8 8 8 8 7 7 7 7 7 7 7 7 7 7 7 7 7 7 7 7 7 7 7 7 7 7 7 7 7 7 7 7 7 7 7 7 7 7 7 7 6 6 6 6 6 6 6 6 7 7 7 7 7 7 7 7 7 7 6 6 6 5 5 5 4 4 4 4 4 4 5 5 5 5 5 5 5 5 5 6 6 5 4 3 1 1 2 3 5 6 7 7 6 6 5 6 6
8 8 8 8 8 8 8 8 8 8 8 8 8 8 8 8 8 8 8 8 8 8 8 8 8 8 8 8 8 8 8 8 8 8 8 8 7 7 7 7 7 7 7 7 7 7 7 7 7 7 7 7 6 6 7 7 7 7 7 7 7 7 7 7 7 7 7 6 6 6 5 5 5 5 4 4 4 5 5 5 5 5 5 5 5 5 5 6 5 5 3 2 1 0 1 3 5 6 7 7 6 6 6
8 8 8 8 8 8 8 8 8 8 8 8 8 8 8 8 8 8 8 8 8 8 9 9 9 9 9 9 8 8 8 8 8 8 8 8 8 8 8 8 7 7 7 7 7 7 7 7 7 7 7 7 7 6 6 6 6 6 6 6 6 6 7 7 7 7 7 7 7 6 6 6 6 5 5 5 5 5 5 5 5 5 5 5 5 5 5 5 6 6 6 4 3 1 -1 -0 1 3 5 6 6 6 6
8 8 8 8 8 8 8 8 8 8 8 8 8 8 8 8 8 8 8 8 8 8 8 8 8 9 9 9 9 9 8 8 8 8 8 8 8 8 8 8 8 8 8 7 7 7 7 7 7 7 7 7 7 7 7 6 6 6 6 6 6 5 6 6 6 6 6 6 6 6 6 6 6 6 6 5 5 5 5 5 5 5 5 5 5 5 5 5 5 5 6 6 5 4 1 -0 -1 -0 1 3 5 6 6
8 7 7 7 7 8 8 8 8 8 7 8 8 8 8 8 8 8 8 8 8 8 8 8 8 8 8 8 8 9 9 9 9 8 8 8 8 8 8 8 8 8 8 8 8 8 8 8 8 8 8 7 7 7 7 7 7 7 7 7 6 6 6 6 5 5 5 6 6 6 6 6 6 6 6 6 6 5 5 5 5 5 5 5 5 5 6 6 6 6 6 6 6 6 5 3 1 -1 -1 0 2 4 5
7 7 7 7 7 7 7 7 7 7 7 7 7 7 7 7 7 7 7 7 7 7 7 7 7 7 8 8 8 8 8 9 9 9 9 9 9 9 9 9 9 9 9 9 8 8 8 8 8 8 8 8 8 8 8 8 8 8 8 8 8 7 7 7 7 6 6 6 6 6 6 6 6 6 6 6 6 6 6 6 6 6 6 6 6 5 5 6 6 6 6 6 6 6 6 6 4 2 -1 -1 -1 1 3
6 6 6 6 6 6 6 6 6 6 6 6 6 6 6 6 6 6 6 6 6 6 6 6 6 6 6 7 7 7 7 8 8 8 8 8 9 9 9 9 9 9 9 9 9 9 9 9 9 9 9 9 8 8 8 8 8 8 8 8 8 8 8 8 8 7 7 7 7 7 7 7 7 7 7 7 6 6 6 6 6 6 6 6 6 6 6 6 6 6 7 7 7 6 6 6 6 5 3 0 -1 -1 0
5 5 5 5 5 5 5 5 5 5 5 5 5 5 5 5 5 5 5 5 5 5 5 5 5 5 5 5 5 5 6 6 6 7 7 7 7 8 8 8 8 9 9 9 9 9 9 9 9 9 9 9 9 8 8 8 8 8 8 8 8 8 8 8 8 8 8 8 7 7 7 7 7 7 7 7 7 7 7 6 6 6 6 6 6 6 6 6 6 6 6 7 7 7 7 7 6 6 6 4 1 -1 -1
4 4 4 4 4 4 4 4 4 4 4 4 4 4 4 4 4 4 4 4 4 4 4 4 4 4 3 3 3 3 3 4 4 4 5 5 6 6 6 7 7 7 8 8 8 8 9 9 9 9 9 8 8 8 8 8 8 8 8 8 8 8 8 8 8 8 8 8 8 7 7 7 7 7 7 7 7 7 7 7 7 6 6 6 6 6 6 6 6 6 6 6 6 7 7 7 7 7 7 6 5 3 -0
4 3 3 4 4 4 4 4 4 4 4 4 4 4 4 4 4 4 4 4 4 3 3 3 3 3 3 3 2 2 2 2 2 3 3 3 4 4 4 5 5 6 6 6 7 7 8 8 8 8 8 8 8 8 8 8 8 8 7 7 7 7 7 7 7 7 7 7 7 7 7 7 7 7 7 7 8 8 8 8 8 7 7 7 6 6 5 5 5 6 6 5 5 6 6 7 7 8 7 7 7 6 4
3 3 3 3 3 3 3 3 3 3 3 3 3 3 3 3 3 3 3 3 3 3 3 3 3 3 3 2 2 2 2 2 2 2 2 2 2 3 3 3 4 4 5 5 6 6 6 7 7 8 8 8 8 8 8 8 8 8 7 7 7 7 7 7 7 7 7 7 7 7 7 7 7 7 7 7 7 7 7 8 8 8 8 8 7 7 6 6 5 5 5 5 5 5 5 5 6 7 7 8 7 7 7
3 3 3 3 3 3 3 3 3 3 3 3 3 3 3 3 3 3 2 2 2 2 2 2 2 3 3 3 3 3 3 3 2 2 2 2 2 2 3 3 3 3 4 4 5 5 6 6 6 7 7 8 8 8 8 8 8 8 8 8 7 7 7 6 6 6 6 6 6 6 6 6 6 6 6 6 6 6 7 7 7 7 8 8 8 8 8 7 7 6 5 5 5 5 5 5 5 5 6 7 7 7 7
3 3 3 3 3 3 3 3 3 3 3 3 3 3 2 2 2 2 2 2 2 2 2 2 2 2 3 3 3 3 4 4 3 3 3 3 3 3 3 3 3 3 3 4 4 4 5 5 6 6 7 7 8 8 8 8 9 9 8 8 8 8 7 7 6 6 6 5 5 5 5 5 5 5 5 5 5 5 5 6 6 6 7 7 7 8 8 8 8 7 7 6 6 5 5 5 4 4 4 5 6 6 7
3 3 3 3 3 3 3 3 3 3 3 2 2 2 2 2 2 2 1 1 1 2 2 2 2 2 3 3 3 4 4 4 4 4 4 4 4 3 3 3 3 3 3 3 3 4 4 4 5 5 6 6 7 7 8 8 8 9 9 9 8 8 8 7 7 7 6 6 5 5 5 4 4 4 4 4 4 4 4 4 4 4 5 5 6 6 7 7 8 8 8 7 7 7 6 5 5 4 4 3 4 4 6
3 3 3 3 3 3 3 3 3 3 2 2 2 2 2 2 2 1 1 2 2 2 2 2 3 3 3 3 4 4 4 4 5 5 5 5 4 4 4 3 3 3 3 3 3 3 3 3 4 4 5 5 6 6 7 7 8 8 9 9 9 9 9 8 8 8 7 7 6 6 5 5 4 4 3 3 3 2 2 2 2 2 2 3 3 4 5 6 6 7 7 7 7 7 7 7 6 6 5 4 3 3 3
3 3 3 3 3 3 3 3 3 2 2 2 2 2 2 2 2 2 2 2 2 3 3 3 3 4 4 4 4 4 4 4 4 5 5 4 4 4 4 4 3 3 3 3 3 3 3 3 3 3 4 4 5 5 5 6 7 7 8 8 9 9 9 9 9 8 8 8 7 7 6 6 5 5 4 3 3 2 2 1 1 1 1 1 2 2 3 4 4 5 6 6 7 7 7 7 7 7 6 6 5 4 3
4 4 3 3 3 3 3 3 3 3 3 3 2 2 2 2 3 3 3 3 3 3 4 4 4 4 4 4 4 4 4 4 4 4 4 4 4 4 4 4 3 3 3 3 3 2 2 3 3 3 3 4 4 4 5 5 6 6 7 7 8 8 9 9 9 9 9 8 8 7 7 6 6 5 5 4 3 2 2 1 1 1 1 2 2 2 2 2 3 3 4 4 5 5 6 6 6 7 7 7 6 5 4
4 4 4 4 4 4 4 4 4 4 3 3 3 3 3 4 4 4 4 4 4 4 4 4 5 5 5 4 4 4 4 4 4 4 4 4 4 4 4 4 4 3 3 3 3 3 2 2 3 3 3 3 4 4 4 5 5 5 6 6 7 8 8 8 9 9 9 9 8 8 7 7 6 6 5 4 4 3 2 2 2 2 3 4 4 5 4 4 3 3 2 3 3 4 4 5 5 5 5 6 6 6 6
6 6 5 5 5 5 5 5 5 5 5 5 5 5 5 5 5 5 5 5 5 5 5 5 5 5 5 4 4 4 4 4 4 4 4 4 4 4 4 4 4 4 4 3 3 3 3 3 3 3 3 3 4 4 4 4 5 5 5 6 6 7 7 8 8 9 9 9 9 8 8 8 7 7 6 5 5 4 4 4 4 4 5 6 7 7 7 6 5 4 3 3 3 3 3 4 4 4 4 4 4 5 5
7 7 7 7 6 6 6 6 6 6 6 6 6 6 6 6 6 6 6 6 6 5 5 5 5 5 5 4 4 4 4 4 4 4 4 4 4 4 4 4 4 4 4 4 4 4 3 3 3 3 3 3 3 4 4 4 4 5 5 5 6 7 7 8 8 9 9 9 9 9 9 8 8 7 7 7 6 6 6 6 6 6 7 8 9 9 9 8 7 5 4 3 3 3 3 3 3 3 3 3 4 4 5
9 8 8 8 8 8 7 7 7 7 7 7 7 7 6 6 6 6 6 6 6 6 5 5 5 5 4 4 4 4 4 4 4 4 4 4 4 4 4 4 4 4 4 4 4 4 4 4 4 3 3 3 4 4 4 4 4 5 5 5 6 6 7 8 8 9 9 9 9 9 9 9 8 8 8 8 7 7 7 7 8 8 9 10 10 10 9 8 6 5 4 4 3 3 2 3 3 3 3 4 5 6 7
9 9 9 9 9 9 8 8 8 8 7 7 7 7 7 7 6 6 6 6 6 5 5 5 5 4 4 4 4 4 4 4 4 5 5 5 5 5 5 5 5 5 4 5 5 5 5 4 4 4 4 4 4 4 4 4 4 5 5 6 6 7 7 8 8 9 9 9 9 9 9 9 8 8 8 8 8 8 8 8 8 9 10 10 10 9 8 7 5 5 4 4 3 3 2 2 3 3 5 6 8 10 12
10 10 10 10 10 9 9 9 9 8 8 8 8 7 7 7 6 6 6 6 5 5 5 5 4 4 4 4 4 4 5 5 5 5 5 5 5 5 5 5 5 5 5 5 5 5 5 5 5 4 4 4 4 4 4 4 5 5 5 6 6 7 8 8 9 9 9 9 9 9 9 9 8 8 8 8 7 7 8 8 9 9 10 10 9 8 6 5 4 4 3 3 3 2 2 2 3 5 7 10 13 16 18
10 10 10 10 10 10 10 10 10 9 9 8 8 8 7 7 7 6 6 6 5 5 5 5 4 4 4 4 4 5 5 5 5 5 5 5 5 5 5 5 5 5 5 5 5 5 5 5 5 5 5 4 4 4 4 5 5 5 6 6 7 7 8 9 9 9 9 9 9 9 9 8 8 8 8 7 7 7 7 8 9 9 9 9 7 6 5 4 3 2 2 2 2 2 3 4 6 8 11 15 19 22 24
10 10 10 10 10 10 10 10 10 10 10 9 9 9 8 8 7 7 7 6 6 6 5 5 5 4 4 4 4 4 5 5 5 5 5 5 5 5 5 5 5 5 5 5 5 5 5 5 5 5 5 4 4 4 5 5 5 6 6 6 7 8 8 9 9 9 10 9 9 9 8 8 8 8 7 7 7 7 8 8 8 8 8 7 6 4 3 2 2 1 1 2 2 3 5 7 9 13 17 21 24 27 29
9 9 9 9 10 10 10 10 10 10 10 10 9 9 9 8 8 8 7 7 6 6 6 5 5 5 5 4 4 5 5 5 5 5 5 5 5 5 5 5 5 5 5 5 5 5 5 5 5 4 4 4 4 4 5 5 6 6 6 7 7 8 9 9 9 9 9 9 9 9 8 8 8 8 8 7 7 8 8 8 8 8 7 5 4 3 2 1 1 1 2 2 4 5 8 11 15 19 23 26 29 31 32
8 8 8 9 9 10 10 10 10 10 10 10 10 10 10 9 9 8 8 8 7 7 6 6 5 5 5 5 5 5 5 5 5 5 6 6 5 5 5 5 5 5 6 6 5 5 5 5 4 4 4 4 4 4 5 5 6 6 7 7 8 8 9 9 9 9 9 9 9 8 8 8 8 8 8 8 8 8 8 8 7 7 5 4 3 2 1 1 2 2 3 4 6 9 12 16 20 24 28 30 32 33 33
7 7 8 8 9 9 9 10 10 10 10 10 10 10 9 9 9 9 8 8 7 7 7 6 6 5 5 5 5 5 5 5 5 5 6 6 6 6 5 5 6 6 6 6 5 5 5 4 4 4 3 3 4 4 5 6 6 7 7 8 8 9 9 9 9 9 9 9 8 8 8 8 8 8 8 8 8 8 8 7 6 5 4 3 2 2 2 2 3 4 6 8 11 14 18 22 26 29 32 33 34 35 34
6 6 7 7 8 9 9 9 10 10 10 10 10 10 10 9 9 9 8 8 7 7 7 6 6 6 5 5 5 5 5 5 5 5 6 6 6 6 6 6 6 6 6 6 6 5 5 4 3 3 3 3 3 4 5 6 7 7 8 9 9 9 9 9 9 9 8 8 8 7 7 8 8 8 8 8 8 8 7 6 5 4 4 3 3 2 3 4 5 7 9 13 16 20 24 27 31 33 35 36 36 35 35
5 5 6 6 7 7 8 9 9 10 10 10 10 10 10 9 9 9 8 8 7 7 7 6 6 6 5 5 5 5 5 5 5 5 5 5 6 6 6 6 6 6 6 6 6 5 5 4 3 2 2 2 3 4 5 6 7 8 9 10 10 10 10 9 9 8 8 7 7 7 7 8 8 8 8 8 8 7 7 6 5 4 3 3 3 3 4 6 8 11 14 18 22 26 30 32 34 36 37 36 36 36 35
4 4 4 5 5 6 7 7 8 9 9 10 10 10 10 10 9 9 8 8 7 7 7 6 6 6 5 5 5 5 5 5 5 5 5 6 6 6 6 6 6 7 7 6 6 5 4 3 3 2 2 2 3 4 5 7 8 9 10 10 10 10 10 9 9 8 7 7 7 7 7 7 8 8 8 8 7 7 6 5 4 4 4 4 4 5 6 9 12 15 19 24 28 31 34 35 36 36 36 36 36 35 34
3 4 4 4 5 5 6 6 7 8 9 9 9 10 10 10 10 9 9 8 8 7 7 6 6 6 5 5 5 5 5 5 5 5 5 6 6 6 6 6 7 7 7 7 6 5 5 3 3 2 2 2 3 4 5 7 9 10 11 11 10 10 9 9 8 7 7 6 6 6 7 7 7 8 8 7 7 6 5 5 4 4 4 5 6 7 10 13 17 21 25 29 32 35 36 36 35 35 34 34 34 33 33
4 4 4 4 4 5 5 6 6 7 8 8 9 9 10 10 10 9 9 9 8 8 7 6 6 6 5 5 5 5 5 5 5 6 6 6 6 6 6 7 7 7 7 7 7 6 5 4 3 2 2 2 3 4 6 8 10 11 12 11 10 9 9 8 7 7 6 6 6 6 7 7 7 7 7 7 6 6 5 5 5 5 5 6 8 10 13 17 21 26 30 33 35 35 35 34 33 32 31 31 31 31 31
4 4 4 4 4 4 5 5 6 6 7 8 9 9 9 10 10 9 9 9 8 8 7 7 6 6 5 5 5 5 5 5 6 6 6 6 6 6 7 7 7 7 7 7 7 7 6 5 4 3 3 3 3 4 6 9 10 12 12 11 10 9 8 7 7 6 5 5 5 6 6 7 7 7 7 6 6 5 5 5 5 6 7 8 11 14 18 22 26 30 33 34 35 33 32 30 29 28 28 28 28 28 29
4 4 4 4 4 4 5 5 5 6 6 7 8 9 9 9 10 9 9 9 8 8 7 7 6 6 6 5 5 5 5 5 5 6 6 6 6 6 7 7 7 7 7 8 8 7 7 6 5 4 4 3 4 5 7 9 11 11 11 10 9 8 7 7 6 5 5 5 5 6 6 6 7 7 6 6 6 5 5 5 6 7 9 12 15 18 22 26 30 32 34 34 32 30 28 26 25 25 25 26 27 27 28
4 4 4 4 4 4 4 4 5 5 6 7 8 8 9 9 10 10 9 9 9 8 8 7 7 6 6 6 5 5 5 5 5 5 5 6 6 6 6 6 6 7 7 8 8 8 7 6 5 5 4 4 5 6 8 10 11 11 10 9 8 8 7 6 5 5 5 5 5 5 6 6 6 6 6 6 6 5 5 6 7 9 12 15 19 23 27 30 32 33 33 31 29 26 25 24 24 24 25 26 27 27 28
3 3 3 4 4 4 4 4 4 5 5 6 7 8 8 9 9 10 10 9 9 9 8 7 7 7 6 6 6 5 5 5 5 5 5 5 5 6 6 6 6 6 7 8 8 8 8 7 6 5 5 5 5 7 9 10 10 10 9 8 8 7 6 6 5 5 5 5 5 5 6 6 6 6 6 6 6 6 6 7 9 12 15 19 23 27 30 31 32 31 29 27 25 24 23 24 25 26 27 28 29 29 29
3 3 3 3 3 3 3 3 4 4 4 5 6 7 8 8 9 9 10 10 9 9 8 8 7 7 6 6 5 5 5 5 5 5 5 5 5 5 5 5 5 6 6 7 8 8 8 7 6 5 5 5 6 7 9 10 10 9 9 8 7 7 6 5 5 5 5 5 5 5 6 6 6 6 6 6 6 6 7 9 12 15 20 24 27 30 31 31 30 28 26 24 23 23 24 26 27 29 30 30 31 31 31
3 3 3 3 3 3 3 3 3 3 4 4 5 6 7 8 9 9 9 9 9 9 9 8 7 7 6 6 5 5 5 5 5 5 5 5 5 5 5 5 5 6 6 7 8 8 8 7 6 5 5 5 6 7 9 9 9 8 8 8 7 6 6 5 5 5 5 5 5 6 6 6 6 6 6 6 6 7 9 12 15 19 24 28 30 31 31 29 27 24 23 22 23 24 26 28 30 32 32 32 32 32 32
3 3 3 3 3 3 3 3 3 3 4 4 5 5 6 7 8 9 9 9 9 9 9 8 7 7 6 6 5 5 5 5 5 5 5 5 6 6 6 6 6 6 6 7 8 8 8 7 6 6 5 6 6 7 8 8 8 8 8 7 7 6 6 5 5 5 5 5 5 6 6 7 6 6 6 6 7 8 11 14 19 23 28 30 31 30 28 26 24 22 21 22 24 26 28 30 32 33 33 33 33 33 32
3 3 3 3 3 3 3 3 3 3 3 4 4 5 6 7 8 8 9 9 9 9 8 8 8 7 6 6 5 5 5 5 5 5 6 6 6 6 7 7 7 7 7 8 8 8 8 7 6 6 6 6 7 7 8 8 7 7 7 7 7 6 5 5 5 5 5 5 6 6 7 7 7 7 7 7 8 10 13 17 22 27 30 31 30 28 25 23 22 21 22 24 26 28 30 31 32 32 32 33 33 33 32
4 4 4 4 4 4 4 4 4 4 4 4 4 5 6 7 7 8 9 9 9 9 8 8 8 7 6 6 5 5 5 5 5 5 6 6 7 7 7 8 8 7 8 8 8 8 8 7 7 6 6 6 7 7 7 7 7 7 7 7 6 6 5 5 5 5 5 6 6 6 7 7 7 7 7 8 10 12 15 20 25 29 31 30 28 25 23 21 21 22 24 26 27 28 29 30 30 31 32 32 33 33 32
4 4 4 4 5 4 4 4 4 4 4 4 4 4 5 6 7 8 9 9 9 9 9 8 8 7 7 6 5 5 5 5 5 6 6 6 7 7 8 8 8 8 8 8 8 8 8 7 7 6 6 6 7 7 7 6 6 6 7 7 6 6 6 5 5 5 6 6 7 7 7 7 8 8 9 10 11 14 17 22 27 30 30 28 25 23 21 21 22 24 26 27 28 28 28 28 29 30 32 33 34 34 34
5 5 5 5 5 5 5 4 4 4 4 3 4 4 5 6 7 8 9 9 10 10 9 8 8 7 7 6 5 5 5 5 6 6 7 7 7 8 8 9 9 9 8 9 9 8 8 7 7 6 6 6 6 6 6 6 6 6 7 7 6 6 6 6 6 6 6 7 7 8 8 8 8 9 10 11 13 15 19 24 28 29 29 26 23 21 20 22 24 26 27 28 27 27 27 28 30 32 34 36 36 37 36
5 5 5 5 5 5 5 5 4 4 4 4 4 4 5 6 7 8 9 9 10 10 9 9 8 7 6 6 6 5 5 6 6 6 6 7 8 8 8 8 8 9 9 9 9 9 8 7 7 6 6 6 6 6 6 6 6 7 7 6 6 6 6 6 6 7 7 8 8 9 9 9 10 10 11 13 15 17 21 25 27 28 26 23 21 20 21 23 26 27 28 27 26 26 27 30 32 35 38 39 40 40 39
5 5 5 5 5 5 5 5 4 4 4 4 4 4 4 5 7 8 9 10 10 10 9 9 8 7 6 6 5 5 6 6 6 6 6 6 7 8 9 9 8 8 9 9 8 8 8 7 6 5 5 6 6 6 5 6 6 7 7 6 6 6 6 6 7 7 8 8 9 10 10 10 11 12 13 14 16 19 22 25 26 26 23 21 20 20 22 25 26 27 26 25 25 26 29 33 36 39 41 42 42 42 41
5 5 5 5 5 5 5 5 4 4 4 4 4 4 4 5 7 8 9 10 10 10 10 9 9 7 6 6 5 5 6 6 6 6 7 8 8 7 8 9 8 8 8 8 8 8 7 6 6 5 5 5 5 5 5 6 6 6 7 6 6 6 6 7 7 8 9 10 10 11 11 12 13 14 15 15 17 20 23 25 24 23 21 19 20 21 24 26 26 26 24 23 25 28 32 36 40 42 44 44 44 43 42
5 5 5 6 6 5 5 5 4 4 4 4 3 4 4 5 7 8 9 11 11 11 10 10 9 8 7 6 5 5 6 6 6 6 7 8 8 8 7 7 7 7 7 8 8 8 7 6 5 4 4 4 4 5 5 6 7 7 7 6 6 6 7 7 8 9 10 10 11 12 13 14 15 15 15 16 18 20 23 23 22 20 19 19 20 22 25 26 25 24 22 23 25 29 35 39 42 44 45 44 43 42 42
5 6 6 6 6 6 5 5 5 4 4 3 3 4 5 6 7 8 10 11 11 11 10 9 9 8 7 6 6 6 6 6 6 6 6 7 8 8 6 6 7 7 7 8 9 9 8 6 5 4 4 4 5 5 6 7 7 7 7 6 6 7 7 8 9 9 10 11 12 13 15 16 16 16 16 17 18 20 21 21 20 19 18 19 21 23 26 25 24 22 21 22 26 30 36 40 43 44 44 43 42 41 41
5 6 6 6 6 6 5 5 5 4 4 4 3 4 4 6 7 8 10 11 12 12 11 9 8 7 7 7 7 7 7 7 7 6 6 6 7 7 8 7 7 8 8 8 8 8 8 6 5 4 4 5 5 6 6 7 7 8 7 6 6 6 7 8 9 10 11 13 14 15 16 17 18 17 16 17 18 19 20 19 18 18 18 20 22 24 25 24 22 20 19 22 26 31 37 40 43 44 43 42 40 39 39
5 6 6 7 6 6 6 5 5 4 4 4 3 3 4 5 7 9 11 12 13 12 11 10 8 7 7 7 7 7 8 8 7 6 6 6 6 7 8 7 6 7 7 7 8 9 8 5 4 4 5 5 5 6 7 8 8 7 6 6 6 6 7 9 10 11 13 15 15 16 17 18 18 18 17 18 18 18 18 17 17 18 19 21 23 24 24 23 20 19 18 21 26 32 37 40 42 43 42 40 39 38 38
5 5 6 6 6 6 6 5 5 4 4 4 4 4 4 6 7 9 11 12 13 12 11 9 8 7 7 7 7 7 7 8 8 7 7 7 5 5 6 7 7 8 8 8 8 8 7 6 5 4 4 5 5 6 7 8 8 7 7 6 6 6 8 10 11 13 15 16 17 17 19 18 18 17 18 17 16 16 16 16 17 18 19 21 22 23 23 21 19 17 17 21 27 33 38 41 42 42 41 39 37 36 36
4 4 5 6 7 7 6 5 5 4 4 4 4 4 5 6 7 9 11 13 13 12 10 9 8 7 7 8 8 8 8 8 9 8 6 7 6 5 4 6 7 9 10 10 9 8 7 6 5 4 4 4 5 6 8 8 8 7 6 6 6 7 8 10 12 14 15 16 17 19 21 20 18 17 16 15 15 15 15 16 17 18 19 21 22 22 21 19 17 16 17 22 28 34 39 41 42 41 40 38 36 35 34
4 4 5 6 7 7 6 6 5 4 4 4 4 4 4 5 7 10 12 14 13 12 9 8 7 7 8 8 8 8 8 8 9 9 7 7 7 6 5 5 5 6 7 8 9 9 8 6 5 4 4 5 6 7 8 8 8 7 6 6 7 8 9 11 13 14 15 16 18 19 21 21 19 16 14 14 14 13 14 15 17 18 19 20 21 21 20 18 16 15 17 22 29 35 40 41 41 41 40 38 36 34 33
5 5 5 6 7 7 7 6 5 4 4 4 4 4 4 6 8 11 13 14 13 11 8 7 7 7 8 8 9 9 9 8 8 9 8 6 5 6 6 6 6 6 6 6 7 8 9 6 5 4 5 4 5 7 8 8 8 7 7 6 7 8 10 12 14 15 16 17 18 19 21 21 19 16 12 13 12 12 13 16 17 18 19 20 20 20 19 17 15 15 16 22 30 36 41 42 42 41 40 38 36 34 32
5 5 5 6 7 8 8 6 5 5 4 4 4 4 5 7 9 11 13 13 12 10 8 7 6 7 8 8 9 10 10 8 7 7 8 7 6 5 5 6 6 7 7 7 6 7 7 6 6 5 5 5 5 6 9 10 8 7 6 6 7 9 12 14 14 15 16 18 19 21 21 21 19 16 13 11 11 12 13 16 17 19 19 19 19 19 18 17 15 15 16 22 30 37 41 42 42 42 41 39 36 34 32
5 5 5 7 8 8 8 6 5 5 4 4 4 5 5 7 9 12 13 13 11 9 7 6 6 7 8 9 9 10 9 8 7 6 5 6 6 5 4 5 6 6 6 7 7 7 6 5 6 6 5 5 5 5 6 9 9 8 6 6 7 10 13 16 16 15 15 18 21 22 21 20 18 15 13 11 10 11 13 16 18 19 19 19 18 17 17 16 15 14 15 22 29 37 42 43 43 42 42 40 37 35 33
5 5 5 7 8 9 8 6 5 4 4 4 5 5 6 8 10 12 13 12 10 8 6 5 6 7 8 9 10 10 9 8 7 6 4 4 5 6 5 5 5 5 5 6 7 7 6 5 5 5 6 6 6 6 5 7 8 8 8 8 9 10 14 16 16 16 17 19 22 23 22 19 17 14 11 10 10 11 13 15 17 19 19 18 17 16 16 16 15 14 15 21 28 36 42 43 43 43 42 40 38 36 35
Height
5863 5862 5862 5862 5861 5861 5860 5860 5859 5859 5858 5858 5858 5858 5857 5857 5856 5856 5856 5855 5855 5855 5854 5854 5854 5853 5853 5853 5853 5853 5853 5852 5852 5852 5852 5852 5851 5851 5851 5851 5851 5851 5850 5850 5849 5849 5849 5848 5848 5848 5848 5848 5848 5848 5848 5848 5848 5847 5847 5847 5847 5846 5846 5846 5846 5846 5846 5845 5845 5846 5846 5846 5846 5847 5847 5848 5848 5849 5850 5851 5851 5852 5852 5851 5851 5851 5851 5851 5852 5852 5853 5853 5854 5855 5856 5857 5858 5859 5860 5861 5863 5863 5864
5862 5861 5861 5860 5860 5859 5859 5859 5858 5858 5857 5857 5856 5856 5856 5855 5855 5854 5854 5854 5853 5853 5853 5852 5852 5852 5851 5851 5851 5850 5850 5850 5850 5849 5849 5849 5849 5848 5848 5848 5848 5848 5848 5847 5847 5846 5846 5846 5845 5845 5844 5844 5844 5844 5844 5844 5844 5844 5844 5844 5844 5844 5843 5843 5843 5843 5843 5843 5843 5843 5843 5843 5843 5843 5844 5844 5845 5845 5846 5846 5847 5848 5848 5849 5849 5849 5848 5848 5849 5849 5849 5850 5851 5851 5852 5853 5854 5855 5856 5857 5858 5859 5861
5860 5860 5859 5859 5859 5858 5858 5858 5857 5856 5856 5855 5855 5854 5854 5853 5853 5853 5852 5852 5852 5851 5851 5851 5850 5850 5849 5849 5849 5848 5848 5848 5847 5847 5847 5846 5846 5846 5846 5846 5845 5845 5845 5844 5844 5843 5843 5843 5842 5842 5842 5841 5841 5841 5841 5840 5840 5840 5840 5840 5840 5840 5840 5840 5840 5840 5840 5840 5840 5840 5840 5840 5840 5840 5841 5841 5841 5842 5842 5843 5843 5844 5844 5845 5846 5846 5846 5846 5846 5846 5846 5846 5847 5848 5848 5849 5850 5851 5852 5853 5854 5855 5857
5859 5859 5858 5858 5858 5857 5857 5856 5856 5855 5854 5854 5853 5853 5853 5852 5852 5851 5851 5850 5850 5849 5849 5849 5848 5848 5848 5847 5847 5846 5846 5845 5845 5845 5844 5844 5844 5843 5843 5843 5843 5843 5842 5842 5841 5841 5841 5840 5840 5839 5839 5838 5838 5838 5838 5837 5837 5837 5836 5836 5836 5836 5837 5837 5837 5837 5837 5837 5837 5837 5837 5837 5837 5837 5837 5838 5838 5838 5838 5839 5839 5840 5840 5841 5842 5842 5843 5843 5843 5843 5843 5843 5843 5844 5845 5845 5846 5847 5848 5849 5850 5851 5852
5858 5857 5857 5856 5856 5856 5855 5855 5854 5853 5853 5853 5852 5851 5851 5850 5850 5849 5849 5848 5848 5848 5847 5847 5847 5846 5846 5845 5845 5844 5843 5843 5843 5842 5842 5842 5841 5841 5841 5840 5840 5840 5840 5839 5839 5838 5838 5838 5837 5837 5836 5836 5836 5835 5835 5834 5834 5833 5833 5833 5833 5833 5833 5833 5833 5833 5833 5833 5833 5833 5833 5833 5833 5833 5834 5834 5834 5834 5835 5835 5835 5836 5836 5837 5838 5838 5839 5839 5840 5840 5840 5840 5840 5840 5841 5842 5843 5843 5844 5845 5846 5847 5848
5857 5856 5856 5855 5855 5854 5854 5853 5853 5852 5852 5851 5850 5850 5849 5849 5848 5848 5847 5847 5846 5846 5845 5845 5844 5844 5843 5843 5843 5842 5842 5841 5841 5840 5840 5839 5839 5838 5838 5838 5838 5838 5837 5837 5837 5836 5836 5835 5835 5834 5834 5834 5833 5833 5833 5832 5832 5831 5831 5830 5830 5830 5829 5829 5829 5829 5829 5829 5829 5829 5829 5829 5829 5829 5830 5830 5830 5831 5831 5831 5832 5832 5832 5833 5833 5833 5834 5835 5836 5836 5837 5837 5837 5837 5837 5838 5838 5839 5840 5841 5842 5843 5843
5855 5855 5854 5854 5853 5853 5852 5852 5851 5851 5850 5849 5849 5848 5848 5847 5847 5846 5846 5845 5844 5844 5843 5843 5843 5842 5842 5841 5841 5840 5839 5839 5838 5838 5838 5837 5837 5836 5836 5836 5835 5835 5835 5835 5834 5834 5833 5833 5833 5832 5832 5831 5831 5831 5830 5830 5830 5829 5828 5828 5828 5827 5827 5827 5826 5826 5825 5826 5826 5826 5826 5826 5826 5826 5826 5826 5826 5826 5827 5827 5828 5828 5828 5828 5828 5829 5830 5830 5831 5832 5833 5833 5833 5833 5833 5834 5834 5835 5836 5837 5838 5839 5839
5854 5853 5853 5852 5852 5851 5851 5850 5850 5849 5849 5848 5848 5847 5846 5846 5845 5845 5844 5843 5843 5842 5842 5841 5841 5840 5839 5839 5838 5838 5838 5837 5837 5836 5835 5835 5834 5834 5833 5833 5833 5833 5833 5832 5832 5832 5831 5831 5830 5830 5829 5829 5828 5828 5828 5827 5827 5827 5826 5826 5825 5825 5824 5824 5823 5823 5823 5823 5823 5822 5822 5822 5822 5822 5822 5822 5823 5823 5823 5823 5823 5824 5824 5824 5824 5824 5825 5825 5826 5827 5828 5829 5829 5830 5830 5830 5830 5831 5832 5833 5833 5835 5835
5853 5852 5852 5851 5850 5850 5849 5849 5848 5848 5847 5847 5846 5845 5845 5844 5844 5843 5842 5842 5841 5840 5840 5839 5838 5838 5838 5837 5837 5836 5835 5835 5834 5834 5833 5833 5832 5832 5831 5831 5830 5830 5830 5829 5829 5829 5828 5828 5827 5827 5826 5826 5825 5825 5825 5824 5824 5823 5823 5823 5822 5822 5821 5821 5820 5820 5820 5819 5819 5819 5819 5819 5819 5819 5819 5819 5819 5819 5819 5819 5819 5820 5820 5820 5820 5821 5821 5821 5821 5822 5823 5824 5825 5825 5826 5826 5827 5827 5827 5828 5829 5830 5831
5852 5851 5850 5850 5849 5848 5848 5847 5847 5846 5846 5845 5844 5844 5843 5843 5842 5841 5841 5840 5839 5838 5838 5837 5837 5836 5835 5835 5834 5834 5833 5833 5832 5832 5831 5830 5830 5829 5829 5828 5828 5827 5827 5827 5826 5826 5825 5825 5824 5824 5823 5823 5822 5822 5821 5821 5821 5820 5820 5819 5819 5818 5818 5817 5817 5816 5816 5816 5816 5815 5815 5815 5815 5815 5815 5815 5815 5815 5815 5815 5816 5816 5816 5816 5816 5817 5817 5817 5817 5817 5818 5818 5819 5820 5821 5822 5823 5823 5823 5823 5824 5824 5826
5850 5850 5849 5848 5848 5847 5846 5846 5845 5844 5844 5843 5843 5842 5841 5841 5840 5839 5839 5838 5837 5837 5836 5835 5834 5834 5833 5833 5832 5831 5831 5830 5830 5829 5828 5828 5827 5827 5826 5825 5825 5824 5824 5823 5823 5823 5822 5822 5821 5821 5820 5819 5819 5818 5818 5817 5817 5816 5816 5815 5815 5814 5814 5813 5813 5812 5812 5812 5811 5811 5811 5811 5811 5811 5811 5811 5811 5811 5811 5811 5812 5812 5812 5812 5812 5812 5813 5813 5813 5813 5813 5813 5814 5814 5815 5817 5818 5818 5819 5819 5819 5819 5820
5849 5848 5848 5847 5846 5845 5845 5844 5843 5843 5842 5841 5841 5840 5839 5839 5838 5838 5837 5836 5835 5834 5834 5833 5832 5831 5831 5830 5829 5829 5828 5828 5827 5826 5826 5825 5824 5824 5823 5823 5822 5821 5821 5820 5819 5819 5818 5818 5817 5817 5816 5816 5815 5815 5814 5813 5813 5813 5812 5812 5811 5810 5810 5809 5809 5808 5808 5807 5807 5807 5806 5806 5806 5806 5806 5806 5806 5807 5807 5807 5807 5807 5808 5808 5808 5808 5808 5808 5808 5809 5809 5809 5809 5809 5810 5811 5812 5813 5814 5814 5814 5814 5815
5847 5847 5846 5845 5844 5844 5843 5842 5842 5841 5840 5839 5839 5838 5838 5837 5836 5835 5835 5834 5833 5832 5832 5831 5830 5829 5828 5828 5827 5826 5825 5825 5824 5823 5823 5822 5822 5821 5820 5819 5819 5818 5817 5817 5816 5815 5815 5814 5813 5813 5812 5812 5811 5811 5810 5810 5809 5808 5808 5808 5807 5806 5806 5805 5804 5804 5803 5803 5802 5802 5801 5801 5801 5801 5801 5801 5801 5801 5802 5802 5802 5803 5803 5803 5803 5803 5803 5804 5804 5804 5804 5804 5805 5805 5805 5806 5806 5807 5808 5809 5810 5810 5810
5846 5845 5844 5843 5843 5842 5841 5841 5840 5839 5838 5838 5837 5836 5835 5834 5834 5833 5832 5832 5831 5830 5829 5828 5828 5827 5826 5825 5824 5823 5823 5822 5821 5820 5819 5819 5818 5818 5817 5816 5815 5814 5813 5813 5812 5811 5811 5810 5809 5809 5808 5808 5807 5807 5806 5806 5805 5804 5804 5803 5803 5802 5801 5801 5800 5799 5799 5798 5798 5797 5797 5796 5796 5796 5796 5796 5796 5796 5796 5796 5797 5797 5797 5798 5798 5798 5798 5799 5799 5799 5800 5800 5800 5800 5800 5801 5801 5802 5803 5803 5804 5805 5806
5844 5843 5843 5842 5841 5840 5839 5839 5838 5837 5836 5836 5835 5834 5833 5832 5832 5831 5830 5829 5828 5828 5827 5826 5825 5824 5823 5822 5821 5820 5819 5819 5818 5817 5816 5815 5814 5814 5813 5812 5811 5811 5810 5809 5808 5808 5807 5806 5805 5805 5804 5803 5803 5803 5802 5801 5801 5800 5800 5799 5798 5798 5797 5797 5796 5795 5794 5794 5793 5793 5792 5791 5791 5791 5790 5790 5790 5790 5790 5790 5791 5791 5791 5792 5792 5792 5793 5793 5793 5794 5794 5794 5795 5795 5795 5796 5796 5797 5797 5798 5798 5799 5800
5842 5841 5841 5840 5839 5838 5838 5837 5836 5835 5834 5833 5833 5832 5831 5830 5829 5828 5827 5827 5826 5825 5824 5823 5822 5821 5820 5819 5818 5817 5816 5815 5814 5813 5813 5812 5811 5810 5809 5808 5808 5807 5806 5805 5804 5803 5803 5802 5801 5801 5800 5799 5799 5798 5798 5797 5796 5796 5795 5795 5794 5793 5793 5792 5791 5791 5790 5789 5789 5788 5787 5787 5786 5786 5785 5785 5784 5784 5784 5784 5784 5784 5785 5785 5786 5786 5786 5787 5787 5788 5788 5788 5788 5789 5789 5790 5791 5791 5792 5792 5793 5794 5794
5840 5839 5838 5838 5837 5836 5835 5834 5834 5833 5832 5831 5830 5829 5828 5828 5827 5826 5825 5824 5823 5822 5821 5820 5819 5818 5817 5816 5815 5814 5813 5812 5811 5810 5809 5808 5807 5806 5805 5804 5803 5803 5802 5801 5800 5800 5799 5798 5797 5796 5796 5795 5794 5793 5793 5792 5792 5791 5791 5790 5789 5788 5788 5787 5786 5786 5785 5784 5783 5783 5782 5782 5781 5780 5780 5780 5779 5778 5778 5778 5778 5778 5778 5778 5779 5779 5780 5780 5780 5781 5781 5781 5782 5782 5783 5783 5784 5785 5786 5786 5787 5788 5788
5838 5837 5836 5835 5835 5834 5833 5832 5831 5831 5830 5829 5828 5827 5826 5825 5824 5823 5822 5821 5820 5819 5818 5817 5816 5815 5814 5813 5812 5811 5810 5809 5808 5807 5806 5804 5803 5802 5801 5800 5799 5798 5798 5797 5796 5795 5795 5794 5793 5792 5791 5790 5790 5789 5788 5788 5787 5786 5786 5785 5784 5783 5783 5782 5781 5780 5780 5779 5778 5777 5776 5776 5775 5775 5774 5774 5773 5773 5773 5772 5772 5771 5771 5771 5772 5772 5772 5773 5773 5773 5773 5774 5774 5775 5775 5776 5777 5778 5778 5779 5780 5781 5782
5836 5835 5834 5833 5832 5832 5831 5830 5829 5828 5827 5826 5825 5824 5823 5823 5822 5821 5820 5818 5818 5816 5815 5814 5813 5812 5811 5810 5808 5808 5806 5805 5804 5803 5802 5801 5800 5799 5798 5796 5795 5794 5793 5793 5792 5791 5790 5789 5788 5788 5787 5786 5785 5784 5783 5783 5782 5781 5780 5780 5779 5778 5778 5777 5776 5775 5774 5773 5772 5771 5770 5770 5769 5768 5768 5767 5767 5766 5766 5765 5765 5764 5764 5764 5764 5764 5764 5764 5765 5765 5766 5766 5766 5767 5767 5768 5768 5769 5770 5772 5773 5773 5775
5834 5833 5832 5831 5830 5829 5828 5827 5827 5826 5825 5824 5823 5822 5821 5820 5819 5818 5817 5816 5814 5813 5812 5811 5810 5808 5807 5806 5805 5804 5803 5802 5801 5799 5798 5797 5796 5795 5794 5793 5791 5790 5789 5788 5787 5786 5785 5785 5784 5783 5782 5781 5780 5779 5778 5777 5776 5776 5775 5774 5773 5772 5772 5771 5770 5769 5768 5767 5766 5765 5764 5763 5762 5761 5760 5760 5759 5759 5758 5758 5757 5757 5756 5756 5756 5756 5756 5756 5756 5757 5757 5758 5758 5758 5759 5759 5760 5760 5761 5763 5764 5765 5766
5832 5831 5829 5828 5828 5827 5826 5825 5824 5823 5822 5821 5820 5819 5818 5817 5816 5815 5814 5813 5811 5810 5809 5808 5807 5805 5804 5803 5801 5800 5799 5798 5797 5796 5794 5793 5792 5791 5790 5789 5788 5786 5785 5784 5783 5782 5781 5780 5779 5778 5777 5776 5775 5774 5773 5772 5771 5770 5769 5768 5767 5766 5765 5764 5763 5762 5761 5760 5759 5758 5757 5755 5754 5753 5753 5752 5751 5751 5750 5749 5749 5748 5748 5747 5747 5747 5747 5747 5747 5747 5748 5748 5748 5749 5749 5750 5751 5751 5752 5753 5754 5755 5757
5829 5828 5827 5826 5825 5824 5823 5822 5821 5820 5819 5818 5817 5816 5815 5814 5813 5812 5811 5809 5808 5807 5806 5804 5803 5802 5800 5799 5798 5797 5795 5794 5793 5792 5790 5789 5788 5787 5786 5785 5783 5782 5781 5780 5778 5777 5776 5775 5774 5773 5772 5771 5770 5769 5768 5766 5765 5764 5763 5761 5760 5759 5758 5757 5756 5755 5753 5753 5751 5750 5749 5748 5747 5745 5744 5743 5743 5742 5741 5741 5740 5740 5739 5739 5738 5738 5738 5738 5737 5737 5738 5738 5738 5739 5739 5740 5741 5742 5742 5743 5744 5745 5747
5827 5826 5825 5824 5823 5822 5821 5820 5818 5818 5816 5815 5814 5813 5812 5811 5809 5808 5807 5806 5805 5803 5802 5801 5799 5798 5797 5796 5794 5793 5792 5790 5789 5788 5786 5785 5784 5783 5782 5780 5779 5778 5777 5775 5774 5773 5771 5770 5769 5768 5766 5765 5764 5763 5762 5760 5759 5758 5756 5755 5753 5752 5751 5750 5749 5748 5746 5745 5743 5742 5741 5740 5738 5737 5737 5736 5735 5734 5733 5733 5732 5731 5731 5730 5729 5728 5728 5728 5728 5727 5727 5728 5728 5728 5729 5729 5730 5731 5731 5732 5733 5734 5736
5825 5824 5823 5821 5820 5819 5818 5817 5816 5814 5813 5812 5811 5810 5808 5807 5806 5805 5804 5803 5801 5800 5799 5797 5796 5795 5793 5792 5791 5789 5788 5787 5785 5784 5783 5781 5780 5778 5777 5776 5775 5773 5772 5771 5769 5768 5767 5765 5763 5762 5761 5759 5758 5757 5756 5754 5753 5752 5750 5748 5747 5745 5744 5742 5741 5740 5738 5737 5736 5734 5733 5732 5731 5730 5729 5728 5727 5726 5726 5725 5724 5723 5722 5721 5720 5719 5718 5718 5718 5717 5717 5717 5717 5718 5718 5718 5719 5719 5720 5721 5722 5723 5724
5823 5821 5820 5819 5818 5817 5815 5814 5813 5812 5810 5809 5808 5807 5805 5804 5803 5802 5800 5799 5798 5797 5795 5794 5793 5791 5790 5788 5787 5786 5784 5783 5782 5780 5778 5777 5775 5774 5773 5771 5770 5769 5767 5766 5764 5763 5762 5760 5758 5757 5755 5754 5752 5751 5749 5748 5747 5745 5743 5742 5740 5738 5737 5735 5733 5732 5731 5729 5728 5727 5726 5724 5723 5723 5722 5721 5720 5719 5718 5717 5716 5715 5714 5713 5712 5711 5709 5709 5708 5708 5707 5706 5706 5707 5707 5707 5707 5708 5708 5708 5709 5710 5711
5820 5819 5818 5817 5815 5814 5813 5812 5810 5809 5808 5806 5805 5803 5802 5801 5799 5798 5797 5796 5794 5793 5792 5790 5789 5788 5786 5784 5783 5782 5780 5779 5778 5776 5775 5773 5771 5770 5768 5767 5765 5764 5763 5761 5759 5758 5757 5755 5753 5752 5750 5748 5747 5745 5743 5742 5740 5739 5737 5735 5733 5732 5730 5728 5726 5725 5723 5722 5720 5719 5718 5718 5717 5716 5715 5714 5713 5712 5711 5709 5708 5707 5706 5704 5703 5702 5700 5699 5698 5697 5697 5696 5695 5695 5695 5695 5695 5695 5695 5695 5696 5697 5698
5818 5817 5815 5814 5813 5812 5810 5809 5808 5806 5805 5803 5802 5800 5799 5798 5796 5795 5794 5792 5791 5790 5788 5787 5785 5784 5782 5781 5779 5778 5776 5775 5773 5772 5770 5769 5767 5765 5763 5762 5761 5759 5758 5756 5754 5753 5751 5750 5748 5746 5744 5743 5741 5739 5738 5736 5734 5732 5731 5729 5727 5725 5723 5721 5720 5718 5716 5715 5713 5712 5711 5710 5710 5709 5708 5706 5705 5704 5703 5702 5700 5699 5698 5696 5694 5693 5691 5689 5688 5687 5686 5685 5683 5683 5683 5682 5681 5681 5681 5682 5682 5683 5684
5815 5814 5813 5812 5810 5809 5808 5806 5805 5803 5802 5801 5799 5798 5796 5795 5793 5792 5790 5789 5788 5786 5785 5783 5782 5780 5779 5777 5776 5774 5772 5771 5769 5768 5766 5764 5763 5761 5759 5757 5756 5754 5753 5751 5749 5748 5746 5744 5743 5741 5739 5737 5736 5734 5732 5730 5728 5726 5724 5722 5720 5718 5717 5715 5713 5711 5709 5708 5707 5706 5704 5703 5703 5702 5700 5699 5698 5696 5695 5693 5692 5690 5689 5687 5686 5684 5682 5680 5678 5677 5675 5673 5672 5671 5670 5669 5668 5667 5667 5667 5668 5668 5670
5813 5812 5810 5809 5808 5806 5805 5803 5802 5801 5799 5798 5796 5795 5793 5792 5790 5789 5787 5786 5784 5783 5781 5780 5778 5777 5775 5774 5772 5770 5768 5767 5765 5763 5762 5760 5758 5757 5755 5753 5751 5749 5748 5746 5744 5743 5741 5739 5737 5735 5733 5732 5730 5728 5726 5724 5722 5720 5718 5716 5714 5712 5710 5708 5706 5705 5703 5701 5700 5698 5697 5696 5695 5694 5693 5692 5690 5688 5687 5685 5683 5682 5680 5678 5677 5675 5673 5670 5668 5666 5664 5662 5659 5658 5656 5655 5653 5653 5652 5652 5653 5653 5655
5811 5809 5808 5807 5805 5803 5802 5801 5799 5798 5796 5795 5793 5792 5790 5789 5787 5786 5784 5783 5781 5780 5778 5777 5775 5773 5772 5770 5768 5767 5765 5763 5761 5759 5758 5756 5754 5752 5750 5748 5746 5744 5743 5741 5739 5737 5735 5733 5731 5729 5728 5726 5724 5722 5720 5718 5716 5714 5712 5709 5708 5705 5703 5702 5700 5698 5697 5695 5693 5692 5690 5689 5688 5687 5685 5684 5683 5681 5679 5677 5675 5673 5671 5669 5668 5665 5663 5660 5658 5655 5652 5649 5647 5644 5642 5640 5639 5638 5637 5637 5637 5638 5640
5808 5807 5805 5804 5802 5801 5799 5798 5796 5795 5793 5792 5790 5788 5787 5786 5784 5783 5781 5779 5778 5776 5775 5773 5772 5770 5768 5767 5765 5763 5761 5759 5757 5755 5753 5752 5750 5748 5746 5744 5742 5740 5738 5736 5734 5732 5730 5728 5726 5724 5722 5720 5718 5717 5715 5713 5710 5708 5706 5703 5701 5699 5697 5695 5694 5692 5690 5689 5687 5686 5684 5682 5680 5679 5677 5676 5674 5673 5671 5669 5667 5664 5662 5660 5658 5655 5653 5650 5646 5643 5639 5636 5633 5630 5628 5626 5624 5623 5622 5622 5622 5623 5625
5806 5804 5803 5801 5799 5798 5797 5795 5793 5792 5790 5789 5787 5786 5784 5783 5781 5779 5778 5776 5774 5773 5771 5770 5768 5766 5765 5763 5761 5759 5758 5756 5753 5751 5749 5748 5745 5743 5742 5739 5737 5735 5733 5731 5729 5727 5725 5723 5721 5718 5717 5715 5713 5711 5709 5707 5705 5703 5700 5698 5696 5693 5691 5689 5688 5686 5684 5683 5681 5679 5677 5675 5673 5671 5669 5668 5666 5664 5662 5660 5658 5655 5653 5650 5648 5645 5642 5638 5634 5631 5627 5623 5619 5616 5613 5611 5609 5608 5607 5607 5607 5608 5610
5803 5802 5800 5798 5797 5795 5793 5792 5790 5789 5787 5786 5784 5783 5781 5779 5778 5776 5774 5773 5771 5769 5768 5766 5764 5763 5761 5759 5757 5756 5754 5752 5750 5748 5745 5743 5741 5739 5737 5735 5733 5731 5729 5727 5724 5722 5720 5718 5716 5713 5711 5709 5707 5705 5703 5702 5699 5697 5695 5693 5690 5688 5686 5684 5682 5680 5678 5677 5674 5673 5670 5668 5666 5663 5662 5659 5658 5656 5653 5651 5649 5646 5643 5640 5637 5634 5630 5626 5622 5618 5613 5609 5605 5602 5598 5596 5594 5593 5592 5592 5592 5593 5594
5800 5799 5797 5796 5794 5793 5791 5789 5788 5786 5784 5783 5781 5779 5778 5776 5774 5773 5771 5769 5768 5766 5764 5763 5761 5759 5757 5755 5753 5752 5750 5748 5746 5743 5741 5739 5737 5735 5733 5731 5728 5727 5724 5722 5720 5718 5715 5713 5711 5708 5706 5704 5702 5700 5698 5696 5694 5692 5689 5687 5685 5683 5680 5678 5676 5674 5672 5670 5668 5665 5663 5661 5658 5656 5654 5651 5649 5647 5644 5642 5639 5636 5633 5629 5626 5622 5618 5614 5609 5605 5600 5596 5591 5588 5584 5582 5579 5578 5578 5577 5578 5578 5579
5798 5796 5795 5793 5791 5790 5788 5786 5785 5783 5781 5780 5778 5776 5775 5773 5771 5769 5768 5766 5764 5762 5761 5759 5757 5755 5753 5752 5750 5748 5746 5744 5742 5739 5737 5735 5733 5731 5729 5726 5724 5722 5720 5718 5715 5713 5711 5708 5706 5704 5702 5699 5697 5695 5693 5691 5688 5686 5684 5682 5679 5677 5675 5673 5670 5668 5666 5663 5661 5658 5656 5653 5651 5648 5646 5643 5641 5638 5635 5632 5629 5626 5622 5618 5614 5609 5605 5601 5596 5591 5587 5582 5578 5574 5571 5568 5565 5564 5563 5563 5563 5563 5564
5795 5793 5792 5790 5788 5787 5785 5783 5782 5780 5778 5777 5775 5773 5771 5770 5768 5766 5764 5763 5761 5759 5757 5755 5753 5751 5749 5748 5746 5744 5742 5740 5738 5735 5733 5731 5729 5727 5724 5722 5720 5718 5716 5713 5711 5708 5706 5704 5702 5699 5697 5694 5692 5689 5687 5685 5683 5681 5678 5676 5673 5671 5669 5667 5664 5662 5659 5656 5653 5651 5648 5645 5643 5640 5638 5635 5632 5629 5626 5622 5619 5615 5611 5606 5601 5597 5592 5587 5583 5578 5573 5569 5564 5561 5558 5554 5552 5551 5550 5549 5549 5549 5550
5793 5791 5789 5788 5786 5784 5782 5781 5779 5777 5775 5773 5772 5770 5768 5766 5764 5763 5761 5759 5757 5755 5753 5751 5749 5748 5746 5743 5742 5740 5738 5736 5734 5731 5729 5727 5725 5723 5720 5718 5716 5713 5711 5709 5707 5704 5702 5699 5697 5694 5692 5689 5687 5684 5682 5679 5677 5674 5672 5670 5668 5665 5663 5660 5658 5655 5653 5649 5646 5643 5640 5638 5635 5632 5629 5627 5623 5620 5616 5612 5608 5603 5599 5594 5588 5583 5578 5573 5569 5564 5560 5556 5552 5548 5545 5542 5540 5538 5537 5536 5535 5535 5535
5790 5788 5787 5785 5783 5781 5779 5778 5776 5774 5772 5770 5768 5767 5765 5763 5761 5759 5757 5755 5753 5751 5749 5748 5745 5744 5742 5740 5738 5736 5734 5732 5730 5728 5725 5723 5721 5718 5716 5714 5712 5709 5707 5705 5702 5700 5697 5694 5692 5689 5687 5684 5682 5679 5676 5674 5671 5668 5666 5664 5661 5659 5657 5654 5651 5648 5646 5643 5639 5636 5633 5629 5627 5624 5621 5618 5614 5610 5606 5602 5597 5592 5586 5581 5575 5570 5565 5560 5555 5551 5547 5543 5539 5536 5533 5530 5528 5526 5524 5523 5522 5522 5522
5787 5785 5783 5782 5780 5778 5776 5775 5773 5771 5769 5767 5765 5763 5762 5760 5758 5756 5754 5752 5750 5748 5746 5744 5742 5740 5738 5736 5734 5732 5730 5728 5726 5723 5721 5719 5717 5714 5712 5710 5708 5705 5703 5701 5698 5695 5693 5690 5687 5684 5682 5679 5677 5674 5671 5668 5665 5663 5660 5657 5655 5652 5650 5647 5644 5641 5638 5635 5632 5628 5625 5622 5618 5615 5612 5608 5604 5600 5596 5591 5585 5580 5574 5568 5562 5557 5552 5547 5542 5538 5534 5530 5527 5524 5521 5518 5516 5513 5511 5510 5509 5509 5509
5784 5782 5781 5779 5777 5775 5773 5772 5770 5768 5766 5764 5762 5760 5758 5756 5754 5752 5750 5748 5746 5744 5742 5740 5738 5736 5734 5733 5730 5728 5726 5724 5722 5719 5717 5715 5712 5710 5708 5706 5703 5701 5699 5696 5694 5691 5688 5685 5683 5679 5676 5673 5671 5668 5665 5662 5659 5656 5653 5651 5648 5645 5643 5640 5637 5634 5631 5628 5624 5621 5618 5614 5610 5606 5603 5599 5595 5590 5585 5580 5574 5568 5562 5556 5549 5544 5538 5534 5529 5525 5521 5518 5515 5512 5509 5506 5503 5501 5499 5497 5496 5496 5496
5781 5779 5778 5776 5774 5772 5770 5768 5766 5764 5763 5761 5758 5757 5755 5753 5751 5748 5747 5745 5743 5741 5739 5737 5734 5732 5730 5728 5727 5724 5722 5720 5718 5715 5713 5711 5708 5706 5703 5701 5699 5696 5694 5692 5689 5687 5684 5681 5678 5674 5671 5668 5665 5662 5659 5656 5653 5650 5647 5644 5641 5638 5635 5632 5629 5626 5623 5619 5616 5613 5609 5606 5602 5597 5593 5589 5585 5580 5575 5569 5563 5556 5550 5543 5537 5531 5526 5521 5517 5513 5509 5505 5502 5499 5497 5494 5491 5488 5486 5484 5483 5483 5482
5778 5777 5775 5773 5771 5769 5767 5765 5763 5761 5759 5757 5755 5753 5751 5749 5747 5745 5743 5741 5739 5737 5735 5733 5731 5729 5726 5724 5723 5720 5718 5716 5714 5712 5709 5706 5704 5702 5699 5697 5694 5692 5689 5687 5684 5682 5679 5676 5673 5670 5666 5663 5659 5656 5653 5650 5646 5643 5640 5637 5634 5631 5628 5624 5621 5618 5614 5611 5608 5604 5601 5597 5593 5588 5584 5579 5574 5569 5564 5558 5551 5545 5538 5532 5526 5520 5514 5509 5504 5500 5496 5493 5490 5487 5484 5481 5479 5476 5473 5472 5470 5470 5469
5776 5774 5772 5770 5768 5766 5764 5762 5760 5758 5756 5754 5752 5750 5748 5746 5743 5741 5739 5737 5735 5733 5731 5729 5727 5725 5723 5720 5718 5716 5714 5712 5710 5708 5705 5703 5700 5697 5695 5692 5690 5687 5684 5682 5679 5677 5674 5671 5668 5665 5661 5658 5654 5650 5647 5643 5640 5637 5633 5630 5627 5624 5620 5617 5613 5610 5606 5603 5599 5595 5591 5588 5584 5580 5575 5570 5564 5559 5553 5547 5540 5533 5527 5521 5515 5509 5503 5498 5493 5488 5484 5480 5477 5474 5472 5469 5467 5464 5461 5459 5458 5457 5458
5773 5771 5769 5767 5765 5763 5761 5759 5757 5755 5753 5751 5748 5746 5744 5742 5740 5738 5735 5733 5731 5728 5726 5725 5723 5721 5718 5716 5714 5712 5710 5708 5706 5703 5701 5698 5696 5693 5691 5688 5685 5683 5680 5677 5675 5672 5669 5666 5663 5659 5656 5653 5649 5645 5641 5637 5633 5630 5627 5623 5620 5616 5613 5609 5605 5602 5598 5594 5590 5586 5582 5578 5574 5570 5565 5560 5554 5548 5542 5535 5529 5523 5517 5511 5505 5498 5492 5487 5481 5477 5473 5468 5465 5462 5459 5457 5454 5452 5449 5448 5446 5445 5446
5770 5768 5766 5764 5762 5760 5758 5756 5754 5752 5749 5747 5745 5743 5741 5738 5736 5734 5732 5729 5727 5725 5722 5720 5718 5716 5714 5712 5710 5708 5706 5704 5701 5699 5697 5694 5692 5689 5687 5684 5681 5678 5675 5673 5670 5667 5664 5661 5658 5654 5650 5647 5643 5639 5635 5631 5628 5624 5620 5616 5613 5609 5605 5601 5598 5594 5590 5585 5581 5577 5572 5568 5563 5559 5554 5549 5544 5538 5531 5525 5518 5512 5507 5501 5495 5489 5483 5476 5471 5466 5461 5457 5453 5450 5447 5444 5442 5440 5438 5436 5434 5434 5434
5767 5765 5763 5761 5759 5757 5755 5753 5751 5748 5746 5744 5742 5739 5737 5735 5732 5730 5728 5725 5723 5721 5718 5716 5714 5712 5710 5708 5705 5703 5701 5699 5697 5695 5693 5690 5688 5685 5682 5679 5677 5674 5671 5668 5665 5662 5659 5656 5652 5648 5645 5641 5637 5633 5630 5626 5622 5618 5614 5610 5606 5602 5598 5593 5589 5585 5581 5577 5572 5567 5563 5558 5553 5548 5543 5538 5532 5526 5520 5514 5508 5503 5497 5491 5485 5479 5473 5467 5461 5456 5451 5447 5443 5439 5435 5432 5430 5428 5426 5424 5423 5422 5423
5764 5762 5760 5758 5756 5754 5752 5749 5747 5745 5743 5740 5738 5736 5733 5731 5728 5726 5724 5722 5719 5717 5715 5712 5710 5707 5705 5703 5701 5699 5697 5694 5693 5690 5688 5686 5683 5681 5678 5675 5672 5669 5666 5663 5659 5657 5654 5651 5647 5643 5639 5635 5632 5628 5624 5620 5616 5612 5608 5603 5599 5595 5591 5586 5582 5577 5572 5568 5563 5558 5553 5548 5543 5537 5532 5526 5520 5514 5508 5502 5497 5492 5487 5482 5476 5470 5463 5458 5452 5447 5442 5437 5433 5428 5424 5421 5418 5416 5414 5412 5411 5410 5412
5760 5758 5756 5754 5752 5750 5748 5746 5743 5741 5739 5737 5734 5732 5729 5727 5725 5722 5720 5718 5715 5713 5710 5708 5706 5703 5701 5699 5697 5694 5692 5690 5688 5686 5683 5681 5679 5677 5674 5671 5668 5664 5662 5658 5655 5652 5649 5646 5642 5638 5634 5630 5626 5622 5618 5614 5610 5605 5601 5597 5593 5588 5583 5579 5574 5568 5563 5558 5553 5548 5543 5537 5532 5526 5521 5514 5508 5502 5496 5490 5486 5482 5477 5472 5466 5460 5454 5449 5443 5438 5433 5428 5423 5418 5414 5410 5407 5404 5403 5401 5399 5400 5401
5757 5755 5753 5751 5749 5747 5744 5742 5740 5738 5735 5733 5730 5728 5725 5723 5721 5718 5716 5713 5711 5709 5706 5704 5702 5699 5696 5694 5692 5690 5688 5685 5683 5681 5679 5677 5674 5672 5670 5668 5664 5661 5657 5654 5650 5647 5643 5641 5637 5633 5629 5625 5621 5616 5612 5608 5604 5600 5595 5591 5586 5581 5576 5571 5566 5561 5555 5549 5544 5538 5533 5527 5521 5516 5510 5503 5497 5491 5484 5479 5474 5470 5466 5461 5456 5451 5445 5440 5435 5429 5424 5419 5414 5409 5405 5401 5397 5394 5392 5389 5388 5388 5390
5753 5751 5749 5747 5745 5743 5741 5738 5736 5734 5731 5729 5727 5724 5722 5719 5717 5714 5712 5709 5707 5705 5702 5699 5697 5695 5693 5689 5687 5685 5683 5681 5678 5676 5674 5672 5670 5667 5664 5662 5660 5657 5653 5649 5646 5643 5639 5636 5633 5628 5623 5619 5616 5611 5607 5602 5598 5593 5589 5584 5579 5574 5569 5564 5558 5553 5548 5542 5535 5529 5523 5517 5511 5505 5499 5493 5487 5480 5474 5469 5464 5459 5455 5450 5445 5441 5436 5431 5426 5421 5416 5411 5406 5400 5396 5391 5388 5384 5382 5380 5378 5378 5379
5750 5748 5745 5743 5741 5739 5737 5734 5732 5730 5728 5725 5723 5720 5718 5715 5713 5710 5708 5705 5703 5701 5698 5695 5693 5691 5689 5686 5683 5680 5678 5676 5673 5672 5669 5666 5664 5663 5659 5656 5654 5652 5650 5645 5642 5639 5636 5631 5628 5624 5619 5614 5610 5606 5602 5597 5592 5587 5582 5577 5572 5567 5562 5557 5551 5545 5540 5534 5528 5522 5515 5509 5502 5496 5489 5483 5477 5471 5465 5460 5455 5450 5445 5440 5435 5431 5426 5422 5417 5413 5408 5402 5397 5392 5387 5382 5378 5375 5373 5371 5369 5368 5369
5746 5744 5742 5740 5738 5735 5733 5731 5728 5726 5724 5721 5719 5716 5714 5711 5709 5706 5704 5702 5699 5697 5694 5692 5689 5686 5684 5682 5679 5676 5673 5671 5668 5666 5665 5661 5658 5657 5655 5652 5649 5646 5645 5641 5637 5634 5632 5628 5623 5619 5616 5610 5604 5599 5595 5590 5586 5581 5575 5570 5564 5560 5555 5549 5544 5538 5532 5526 5520 5514 5508 5501 5494 5488 5481 5474 5468 5462 5456 5452 5447 5442 5436 5431 5426 5421 5417 5413 5408 5403 5399 5394 5388 5383 5378 5374 5370 5367 5364 5362 5361 5360 5361
5743 5740 5738 5736 5734 5732 5729 5727 5725 5722 5720 5718 5715 5712 5710 5707 5705 5702 5700 5697 5695 5693 5690 5688 5685 5682 5679 5678 5675 5672 5669 5667 5664 5661 5659 5657 5653 5650 5648 5648 5644 5641 5638 5635 5631 5628 5626 5624 5620 5615 5610 5605 5600 5594 5589 5583 5578 5574 5569 5564 5558 5553 5547 5542 5537 5531 5525 5519 5513 5507 5500 5494 5487 5480 5474 5467 5460 5454 5449 5444 5439 5434 5428 5423 5418 5413 5408 5404 5400 5395 5390 5385 5380 5375 5370 5366 5362 5359 5357 5355 5353 5353 5353
5739 5737 5734 5732 5730 5728 5725 5723 5721 5718 5716 5713 5711 5708 5706 5703 5701 5698 5696 5693 5691 5688 5686 5683 5681 5678 5676 5673 5671 5668 5665 5662 5660 5657 5654 5652 5649 5645 5641 5640 5638 5636 5633 5630 5627 5623 5619 5617 5615 5611 5606 5600 5594 5589 5585 5579 5573 5567 5562 5558 5553 5547 5541 5535 5529 5524 5518 5512 5506 5500 5494 5487 5480 5473 5467 5460 5453 5448 5443 5438 5433 5428 5422 5416 5411 5406 5401 5396 5392 5387 5383 5378 5373 5368 5363 5358 5355 5352 5350 5348 5347 5346 5346
5735 5733 5731 5728 5726 5724 5722 5719 5717 5714 5712 5710 5707 5704 5702 5699 5697 5694 5691 5689 5686 5684 5681 5679 5676 5674 5672 5668 5666 5663 5661 5658 5655 5652 5649 5646 5643 5641 5637 5633 5631 5629 5627 5625 5622 5619 5616 5612 5609 5606 5603 5598 5591 5584 5579 5575 5569 5563 5556 5550 5545 5540 5535 5529 5523 5517 5511 5505 5498 5493 5487 5481 5474 5467 5460 5454 5448 5443 5438 5433 5428 5423 5416 5411 5405 5400 5394 5390 5385 5380 5375 5371 5366 5361 5356 5352 5348 5345 5343 5342 5341 5340 5340
5731 5729 5727 5725 5723 5720 5718 5716 5713 5711 5708 5706 5703 5700 5698 5695 5692 5690 5687 5685 5682 5679 5677 5674 5672 5669 5667 5665 5662 5658 5656 5653 5650 5648 5645 5640 5637 5635 5633 5628 5625 5621 5618 5616 5614 5612 5609 5608 5604 5601 5598 5595 5589 5582 5573 5568 5563 5558 5552 5545 5538 5533 5528 5522 5517 5511 5505 5498 5492 5486 5480 5474 5468 5461 5455 5448 5443 5438 5434 5429 5424 5418 5412 5406 5400 5394 5389 5384 5379 5373 5369 5364 5359 5354 5350 5345 5342 5339 5338 5336 5335 5335 5335
5728 5726 5723 5721 5719 5717 5714 5712 5709 5707 5704 5702 5699 5697 5694 5691 5688 5685 5683 5680 5678 5675 5673 5670 5667 5664 5662 5660 5657 5654 5651 5648 5645 5642 5640 5636 5632 5629 5626 5623 5620 5616 5613 5609 5606 5604 5601 5599 5598 5597 5593 5590 5586 5580 5572 5563 5556 5551 5546 5541 5534 5528 5522 5515 5509 5504 5498 5493 5486 5480 5474 5468 5462 5455 5449 5443 5438 5433 5429 5425 5419 5413 5408 5402 5396 5390 5384 5379 5373 5368 5363 5358 5353 5348 5344 5340 5337 5334 5333 5331 5331 5330 5330
5724 5722 5720 5718 5715 5713 5711 5708 5705 5703 5700 5698 5695 5693 5690 5687 5684 5681 5678 5676 5673 5671 5668 5665 5663 5660 5657 5655 5653 5650 5647 5643 5640 5637 5633 5631 5628 5624 5620 5617 5614 5612 5608 5604 5601 5598 5595 5591 5589 5588 5587 5586 5583 5578 5571 5563 5554 5546 5539 5533 5528 5523 5517 5511 5504 5498 5492 5486 5480 5475 5469 5463 5456 5450 5443 5438 5433 5428 5425 5420 5415 5409 5403 5397 5391 5386 5380 5374 5368 5363 5358 5352 5347 5343 5338 5335 5332 5329 5328 5327 5326 5326 5327
5720 5718 5716 5714 5712 5709 5707 5704 5702 5699 5697 5694 5692 5689 5686 5683 5680 5678 5674 5672 5669 5666 5663 5661 5658 5656 5653 5650 5648 5645 5642 5639 5636 5633 5629 5625 5622 5619 5616 5612 5608 5605 5602 5598 5595 5592 5589 5586 5582 5579 5578 5577 5576 5573 5568 5561 5552 5544 5536 5529 5522 5516 5511 5505 5499 5493 5487 5480 5474 5468 5463 5457 5451 5444 5438 5432 5427 5423 5419 5415 5410 5404 5398 5393 5387 5381 5375 5370 5364 5359 5353 5348 5343 5338 5333 5330 5327 5325 5324 5323 5322 5322 5323
5716 5714 5712 5710 5708 5705 5703 5700 5698 5695 5693 5690 5688 5685 5682 5679 5676 5673 5671 5668 5665 5662 5659 5657 5654 5651 5648 5645 5643 5640 5637 5634 5630 5627 5624 5620 5616 5613 5611 5607 5603 5600 5596 5593 5589 5586 5583 5579 5576 5573 5570 5567 5566 5565 5564 5558 5550 5541 5533 5526 5519 5512 5504 5498 5493 5487 5482 5475 5469 5463 5457 5451 5445 5438 5432 5426 5421 5418 5414 5410 5405 5399 5394 5388 5383 5377 5371 5366 5360 5355 5349 5344 5339 5334 5329 5326 5323 5321 5320 5319 5318 5318 5319
5712 5710 5708 5706 5703 5701 5699 5696 5693 5691 5688 5686 5683 5681 5678 5675 5672 5669 5667 5663 5661 5658 5655 5653 5649 5647 5644 5641 5638 5635 5632 5629 5626 5622 5619 5615 5612 5608 5605 5602 5598 5595 5591 5587 5583 5580 5576 5573 5569 5566 5563 5560 5558 5555 5554 5553 5548 5539 5531 5523 5516 5508 5501 5493 5486 5480 5475 5470 5464 5458 5452 5446 5440 5433 5427 5421 5416 5413 5408 5404 5399 5394 5389 5384 5378 5373 5367 5362 5356 5351 5346 5340 5335 5330 5326 5323 5320 5318 5316 5315 5315 5315 5316